Date String (YYYY-MM-DD hh:mm:ss) UTC,Instrument flags,absolute air pressure of the measurement (hPa),sample flow rate (lpm),inlet stack bypass flow (lpm),air temperature of the measurement (°C),ambient temperature measured by the external sensor (°C),aerosol sample conditioner tube jacket temperature (°C),OPC LED temperature (°C),internal box temperature (°C),relative humidity of the measurement (%),span deviation,mass concentration of particles derived from Lorenz-Mie calculation of OPC scattering (μg/m³),mass concentration of particles derived from Lorenz-Mie calculation of OPC scattering (μg/m³),mass concentration of particles derived from Lorenz-Mie calculation of OPC scattering (μg/m³)
DateTimeUTC,F1_M11,P_M11,Q1_M11,Q2_M11,T1_M11,T2_M11,T3_M11,T4_M11,T5_M11,U1_M11,ZSPAN_M11,X0_M11,X2_M11,X1_M11
2024-05-16 20:00:00,SystemResetWarning,0825.2,4.99,000.00,024.4,023.4,000.0,032.4,025.9,019.7,0000.0,0009.42,0002.63,0001.89
2024-05-16 20:01:00,SystemResetWarning,0825.2,5.00,000.00,024.1,021.9,000.0,032.4,025.1,019.6,0000.0,0008.72,0002.66,0001.89
2024-05-16 20:02:00,SystemResetWarning,0825.2,5.01,000.00,023.9,021.9,000.0,032.4,025.1,019.8,0000.0,0009.17,0002.67,0001.88
2024-05-16 20:03:00,SystemResetWarning,0825.2,4.99,000.00,023.9,022.2,000.0,032.3,025.3,020.1,0000.0,0009.07,0002.69,0001.88
2024-05-16 20:04:00,SystemResetWarning,0825.2,5.00,000.00,024.0,022.6,000.0,032.3,025.5,021.4,0000.0,0008.98,0002.66,0001.86
2024-05-16 20:05:00,SystemResetWarning,0825.2,5.00,000.00,024.0,022.9,000.0,032.2,025.6,021.8,0000.0,0008.65,0002.67,0001.86
2024-05-16 20:06:00,SystemResetWarning,0825.2,5.01,000.00,024.1,023.1,000.0,032.2,025.8,020.2,0000.0,0009.02,0002.66,0001.86
2024-05-16 20:07:00,SystemResetWarning,0825.2,5.00,000.00,024.2,023.4,000.0,032.3,026.0,020.1,0000.0,0009.26,0002.67,0001.85
2024-05-16 20:08:00,SystemResetWarning,0825.2,4.99,000.00,024.2,023.6,000.0,032.3,026.1,020.0,0000.0,0008.90,0002.71,0001.85
2024-05-16 20:09:00,SystemResetWarning,0825.2,4.99,000.00,024.3,023.7,000.0,032.3,026.2,018.9,0000.0,0009.36,0002.74,0001.86
2024-05-16 20:10:00,SystemResetWarning,0825.2,4.99,000.00,024.4,023.9,000.0,032.3,026.3,019.1,0000.0,0008.83,0002.68,0001.85
2024-05-16 20:11:00,SystemResetWarning,0825.2,5.00,000.00,024.3,022.7,000.0,032.4,025.6,018.8,0000.0,0008.86,0002.67,0001.87
2024-05-16 20:12:00,SystemResetWarning,0825.1,5.01,000.00,024.0,021.7,000.0,032.5,025.0,019.3,0000.0,0009.18,0002.68,0001.87
2024-05-16 20:13:00,SystemResetWarning,0825.1,5.01,000.00,023.9,022.1,000.0,032.4,025.1,019.0,0000.0,0008.99,0002.70,0001.88
2024-05-16 20:14:00,SystemResetWarning,0825.1,4.99,000.00,023.9,022.4,000.0,032.3,025.3,019.5,0000.0,0008.03,0002.67,0001.89
2024-05-16 20:15:00,SystemResetWarning,0825.1,5.00,000.00,024.0,022.7,000.0,032.3,025.5,019.6,0000.0,0008.09,0002.73,0001.89
2024-05-16 20:16:00,SystemResetWarning,0825.1,5.00,000.00,024.0,022.9,000.0,032.3,025.7,018.8,0000.0,0007.87,0002.72,0001.90
2024-05-16 20:17:00,SystemResetWarning,0825.1,5.00,000.00,024.1,023.2,000.0,032.3,025.9,018.9,0000.0,0007.79,0002.76,0001.92
2024-05-16 20:18:00,SystemResetWarning,0825.1,5.00,000.00,024.2,023.4,000.0,032.3,026.0,018.7,0000.0,0007.39,0002.76,0001.94
2024-05-16 20:19:00,SystemResetWarning,0825.1,5.01,000.00,024.3,023.6,000.0,032.3,026.1,018.4,0000.0,0008.38,0002.76,0001.95
2024-05-16 20:20:00,SystemResetWarning,0825.1,5.00,000.00,024.3,023.8,000.0,032.3,026.2,018.6,0000.0,0008.20,0002.72,0001.97
2024-05-16 20:21:00,SystemResetWarning,0825.1,4.99,000.00,024.4,023.9,000.0,032.4,026.3,018.1,0000.0,0007.92,0002.72,0001.99
2024-05-16 20:22:00,SystemResetWarning,0825.1,5.00,000.00,024.4,023.2,000.0,032.4,025.9,018.1,0000.0,0007.66,0002.73,0002.03
2024-05-16 20:23:00,SystemResetWarning,0824.9,5.00,000.00,024.0,021.3,000.0,032.5,024.8,018.4,0000.0,0007.37,0002.74,0002.05
2024-05-16 20:24:00,SystemResetWarning,0824.9,5.01,000.00,023.7,021.0,000.0,032.5,024.6,018.9,0000.0,0006.97,0002.74,0002.06
2024-05-16 20:25:00,SystemResetWarning,0824.9,5.01,000.00,023.7,021.4,000.0,032.4,024.8,019.3,0000.0,0007.20,0002.78,0002.05
2024-05-16 20:26:00,SystemResetWarning,0824.9,5.00,000.00,023.7,021.8,000.0,032.2,025.0,020.1,0000.0,0007.25,0002.74,0002.06
2024-05-16 20:27:00,SystemResetWarning,0825.0,5.00,000.00,023.7,022.2,000.0,032.2,025.2,020.7,0000.0,0007.43,0002.75,0002.06
2024-05-16 20:28:00,SystemResetWarning,0824.9,5.01,000.00,023.8,022.6,000.0,032.1,025.4,019.6,0000.0,0008.33,0002.77,0002.07
2024-05-16 20:29:00,SystemResetWarning,0825.0,4.99,000.00,023.9,022.9,000.0,032.1,025.6,019.2,0000.0,0008.48,0002.81,0002.08
2024-05-16 20:30:00,SystemResetWarning,0824.9,4.99,000.00,023.9,023.1,000.0,032.1,025.7,019.4,0000.0,0007.38,0002.84,0002.08
2024-05-16 20:31:00,SystemResetWarning,0824.9,5.00,000.00,024.0,023.3,000.0,032.1,025.9,019.1,0000.0,0007.15,0002.84,0002.07
2024-05-16 20:32:00,SystemResetWarning,0824.9,5.00,000.00,024.1,023.5,000.0,032.2,026.0,019.4,0000.0,0007.12,0002.82,0002.07
2024-05-16 20:33:00,SystemResetWarning,0824.9,5.00,000.00,024.2,023.7,000.0,032.2,026.1,018.7,0000.0,0007.05,0002.80,0002.06
2024-05-16 20:34:00,SystemResetWarning,0824.9,5.00,000.00,024.3,023.9,000.0,032.2,026.2,019.2,0000.0,0007.00,0002.78,0002.04
2024-05-16 20:35:00,SystemResetWarning,0824.9,5.00,000.00,024.3,023.6,000.0,032.3,026.0,018.8,0000.0,0007.04,0002.73,0002.03
2024-05-16 20:36:00,SystemResetWarning,0824.9,4.99,000.00,024.0,021.8,000.0,032.4,024.9,018.8,0000.0,0007.04,0002.74,0002.04
2024-05-16 20:37:00,SystemResetWarning,0824.8,5.01,000.00,023.7,020.8,000.0,032.4,024.4,019.6,0000.0,0006.77,0002.73,0002.04
2024-05-16 20:38:00,SystemResetWarning,0824.8,5.01,000.00,023.6,021.2,000.0,032.3,024.6,019.5,0000.0,0006.51,0002.73,0002.04
2024-05-16 20:39:00,SystemResetWarning,0824.8,4.99,000.00,023.5,021.6,000.0,032.2,024.8,019.8,0000.0,0004.87,0002.77,0002.06
2024-05-16 20:40:00,SystemResetWarning,0824.9,5.00,000.00,023.6,022.0,000.0,032.1,025.0,020.2,0000.0,0004.72,0002.76,0002.05
2024-05-16 20:41:00,SystemResetWarning,0824.8,5.00,000.00,023.7,022.3,000.0,032.0,025.2,019.8,0000.0,0004.73,0002.78,0002.05
2024-05-16 20:42:00,SystemResetWarning,0824.8,5.01,000.00,023.7,022.7,000.0,032.0,025.4,019.7,0000.0,0005.31,0002.79,0002.05
2024-05-16 20:43:00,SystemResetWarning,0824.8,4.99,000.00,023.8,022.9,000.0,032.0,025.6,020.0,0000.0,0005.80,0002.82,0002.05
2024-05-16 20:44:00,SystemResetWarning,0824.8,4.99,000.00,023.9,023.2,000.0,032.0,025.7,019.3,0000.0,0006.29,0002.86,0002.05
2024-05-16 20:45:00,SystemResetWarning,0824.8,5.00,000.00,024.0,023.4,000.0,032.0,025.9,019.6,0000.0,0006.53,0002.91,0002.06
2024-05-16 20:46:00,SystemResetWarning,0824.7,5.01,000.00,024.1,023.6,000.0,032.1,026.0,021.2,0000.0,0006.68,0002.96,0002.06
2024-05-16 20:47:00,SystemResetWarning,0824.8,5.01,000.00,024.2,023.8,000.0,032.1,026.1,020.6,0000.0,0007.06,0002.88,0002.05
2024-05-16 20:48:00,SystemResetWarning,0824.7,5.00,000.00,024.2,023.8,000.0,032.2,026.1,020.9,0000.0,0007.22,0002.91,0002.03
2024-05-16 20:49:00,SystemResetWarning,0824.7,4.98,000.00,024.1,022.5,000.0,032.3,025.4,020.4,0000.0,0007.66,0002.91,0002.01
2024-05-16 20:50:00,SystemResetWarning,0824.7,5.02,000.00,023.9,021.8,000.0,032.3,025.0,020.0,0000.0,0007.68,0002.88,0001.98
2024-05-16 20:51:00,SystemResetWarning,0824.7,5.00,000.00,023.8,022.1,000.0,032.3,025.1,020.1,0000.0,0007.74,0002.86,0001.97
2024-05-16 20:52:00,SystemResetWarning,0824.7,4.99,000.00,023.9,022.4,000.0,032.2,025.3,020.2,0000.0,0007.99,0002.82,0001.95
2024-05-16 20:53:00,SystemResetWarning,0824.7,4.99,000.00,023.9,022.7,000.0,032.1,025.5,020.3,0000.0,0007.92,0002.79,0001.93
2024-05-16 20:54:00,SystemResetWarning,0824.7,5.01,000.00,024.0,023.0,000.0,032.1,025.7,020.6,0000.0,0007.64,0002.82,0001.91
2024-05-16 20:55:00,SystemResetWarning,0824.7,5.01,000.00,024.1,023.2,000.0,032.1,025.8,021.1,0000.0,0007.50,0002.80,0001.89
2024-05-16 20:56:00,SystemResetWarning,0824.7,5.00,000.00,024.1,023.5,000.0,032.2,026.0,021.5,0000.0,0007.42,0002.77,0001.89
2024-05-16 20:57:00,SystemResetWarning,0824.7,4.99,000.00,024.2,023.6,000.0,032.2,026.1,020.6,0000.0,0007.38,0002.74,0001.89
2024-05-16 20:58:00,SystemResetWarning,0824.7,4.99,000.00,024.3,023.8,000.0,032.2,026.2,020.0,0000.0,0007.57,0002.75,0001.89
2024-05-16 20:59:00,SystemResetWarning,0824.7,5.00,000.00,024.2,022.7,000.0,032.3,025.5,020.2,0000.0,0008.54,0002.75,0001.89
